Theta_e
307 305 305 305 305 306 307 308 309 309 308 309 310 313 315 317 319 323 325 324 326 329
304 303 303 304 304 304 305 307 307 307 306 308 309 310 309 311 312 318 322 322 325 326
303 303 303 304 303 303 304 305 306 306 307 307 309 310 309 309 311 314 317 321 322 325
301 301 302 302 301 301 301 303 305 306 307 308 308 310 311 310 313 314 314 317 320 323
299 301 299 299 301 302 302 303 304 305 306 307 308 309 310 310 312 314 317 317 319 322
298 298 298 299 300 301 301 302 303 305 305 306 307 309 310 311 311 313 314 314 316 320
296 297 297 298 299 300 301 302 303 304 305 307 308 309 310 311 313 313 315 316 318 319
296 296 297 299 300 300 301 301 303 304 305 307 309 310 310 311 313 313 311 310 312 313
295 296 298 298 298 299 299 300 301 301 305 308 311 307 307 311 313 310 307 305 306 308
295 296 297 297 297 297 297 297 297 298 300 300 300 301 304 307 304 302 302 302 302 303
296 296 296 296 296 296 296 295 295 296 297 297 298 299 299 301 300 299 299 300 301 300
295 295 295 295 295 295 295 294 295 295 296 295 296 297 297 299 299 298 298 299 299 299
294 294 294 295 295 295 295 295 295 295 295 297 295 295 297 299 299 297 298 299 299 299
293 293 293 294 294 294 294 295 294 294 295 295 296 295 295 295 299 299 298 298 297 296
Wind_Speed
7 5 7 9 9 8 9 9 12 11 10 11 11 10 7 5 6 9 6 7 6 5
7 11 12 12 10 9 12 11 15 15 13 14 13 12 10 9 9 10 7 7 7 6
13 13 13 11 14 15 13 15 15 14 13 13 13 13 13 10 10 10 7 6 8 8
13 13 13 14 16 15 13 15 15 14 14 15 14 13 12 12 13 9 8 9 10 11
14 14 15 14 16 15 16 15 15 15 15 15 14 14 12 12 10 9 9 5 7 9
15 15 16 16 16 16 16 16 15 15 15 15 14 14 13 13 11 10 9 6 8 10
15 16 16 16 16 15 15 15 14 14 15 15 15 14 12 12 9 9 9 6 6 7
15 16 16 15 14 14 13 12 12 13 14 14 12 9 11 10 8 5 5 3 4 4
15 15 15 13 13 13 12 11 11 11 11 8 4 7 11 8 6 8 8 8 9 10
14 14 13 13 12 13 13 12 12 12 12 12 12 11 14 13 9 10 8 8 9 11
13 13 13 13 13 13 11 11 10 12 13 13 14 22 18 24 14 13 13 10 11 10
12 12 12 12 13 12 11 11 11 11 14 15 16 23 18 16 14 15 15 11 11 10
12 12 12 12 12 11 9 11 10 13 13 20 16 24 23 13 9 15 11 11 11 14
11 10 11 11 11 11 11 12 12 13 14 16 17 20 27 22 9 8 9 8 6 6
Wind_Direction
296 277 287 296 291 287 282 278 285 283 279 282 277 276 261 268 288 283 276 286 261 249
301 303 298 293 291 296 294 286 290 287 285 277 271 260 265 264 269 270 270 273 273 259
310 309 303 300 303 301 297 293 290 280 271 270 271 271 266 258 255 246 254 255 262 264
314 310 308 309 306 301 290 286 284 281 275 271 267 265 263 256 247 240 250 253 253 257
309 313 311 308 303 297 291 286 283 279 273 268 264 257 253 257 261 257 245 241 248 253
323 316 314 310 304 301 296 291 286 279 271 267 259 255 243 243 243 243 253 246 257 262
328 321 312 310 308 303 300 295 289 283 276 266 259 245 241 239 232 230 241 244 243 241
321 318 314 315 318 316 312 307 299 293 283 266 254 239 224 228 224 202 139 112 95 70
325 321 328 334 335 334 335 335 338 338 344 6 309 235 211 210 214 136 127 111 89 85
326 336 341 342 349 356 351 353 1 1 10 21 7 330 209 123 102 100 95 94 97 88
342 346 348 355 1 2 357 2 8 14 22 29 25 34 77 100 96 87 78 78 81 88
351 354 356 8 8 5 7 10 18 22 32 40 37 35 39 78 88 88 78 64 70 75
353 0 7 10 12 8 11 20 26 36 35 43 45 37 38 45 78 88 86 72 62 59
2 3 10 21 19 17 22 28 35 41 40 43 43 43 42 30 50 73 84 78 65 44